FENGYUN 1C DEB

Satellite information

Favourite Embed

Satellite Type and Status

DEBRISIN ORBIT

Key statistics

Satellite FENGYUN 1C DEB at a glance.

Uptime

9554

Days in orbit

Revolutions

≈ 14.2

Per day

Orbit

SSO

Sun Synchronous Orbit

Inclination

98.5

Latest

Satellite identification and parameters

Extended collection of information and parameters for FENGYUN 1C DEB.

Object identification

Identified? True

Debris? True

Object name: FENGYUN 1C DEB

International designator: 1999-025FX

Object number (NORAD): 29877

Object ID (CCSDS): 29877

Country: PEOPLES REPUBLIC OF CHINA (PRC)

Current information (Y/N): Y

RCS size: SMALL

Orbital parameters

Period: 101.097 minutes

Inclination: 98.5367 deg

SMA: 7188.719 km

Apoapsis: 843.55 km

Periapsis: 777.617 km

RAAN: 196.2521 deg

Eccentricy: 0.0045859

Argument of periapsis: 328.3922 deg

Mean anomaly: 185.508 deg

Mean motion: 14.24378887 rev/day

Mean motion (dot): 0.00000635 rev/day2

B* drag term: 0.00028997 1/REarth

Two-line elements (TLE)

Creation date: July 5, 2025, 5:45 p.m.

Reference frame: TEME

Reference center: EARTH

Epoch: July 5, 2025, 12:18 p.m. UTC

TLE line 0: 0 FENGYUN 1C DEB

TLE line 1: 1 29877U 99025FX 25186.51269747 .00000635 00000-0 28997-3 0 9993

TLE line 2: 2 29877 98.5367 196.2521 0045859 328.3922 185.5080 14.24378887956929

Live tracking on map

Real-time ground track for satellite FENGYUN 1C DEB.

In-orbit conjunctions

A list of the most updated potential collisions computed for object FENGYUN 1C DEB.

Target Orbit TCA Probability of collision Miss distance Type
METEOR 1-17 DEB LEO 2025-07-05 18:48:04 0.0001936084 182.0 (m) DEBRIS
CZ-6A DEB LEO 2025-01-03 19:50:42 0.0001101207 604.0 (m) DEBRIS
CZ-6A DEB LEO 2024-11-03 05:32:35 0.0001522787 627.0 (m) DEBRIS
COSMOS 1275 DEB LEO 2024-08-12 13:56:05 0.000110429 154.0 (m) DEBRIS

Associated space launch

Chinese polar orbiting meteorological satellite

FENGYUN 1C DEB was lifted into orbit during the mission ‘Long March 4B | Feng Yun 1C’, on board a Long March 4B space rocket.

The launch took place on May 10, 1999, 1:33 a.m. from Launch Complex 7.

For more information about the launch, click the button.

Launch to space Long March 4B | Feng Yun 1C
Long March 4B | Feng Yun 1C

Agency: N/A

Status: Launch Successful

Launch date: May 10, 1999, 1:33 a.m. UTC

Rocket: Long March 4B

Launch pad: Launch Complex 7

Location: Taiyuan Satellite Launch Center, People's Republic of China

...

Latest news about this satellite

There are no fresh news available about this satellite. Check back as we update our databases every day.


Newsletter sign-up

Weekly statistics, charts and insights to help you stay on top of the space industry.